SQ7KHZ-10 Weather Reports


Display with metric or nautical units.
time (UTC)temp
F
wind
direction
speed
MPH
gust
MPH
rain 1hr
in
rain 24hr
in
rain mn
in
humidity
%
barometer
mb
20260503224323 52 171 0.0 0.0 0.00 0.00 0.00 69 1014.7
20260503222322 51 205 0.0 0.0 0.00 0.00 0.00 74 1014.7
20260503220311 51 135 0.0 0.0 0.00 0.00 0.00 73 1014.7
20260503214234 51 170 0.0 0.0 0.00 0.00 0.00 75 1014.8
20260503212234 52 116 0.0 0.0 0.00 0.00 0.00 74 1014.7
20260503210211 53 127 0.0 0.0 0.00 0.00 0.00 73 1014.7
20260503204158 53 124 0.0 0.0 0.00 0.00 0.00 74 1014.6
20260503202146 54 122 0.0 0.0 0.00 0.00 0.00 71 1014.6
20260503200147 55 154 0.0 0.0 0.00 0.00 0.00 68 1014.6
20260503194134 59 132 0.0 0.0 0.00 0.00 0.00 62 1014.6
20260503192123 59 160 0.0 0.0 0.00 0.00 0.00 62 1014.6
20260503190059 61 118 0.0 0.0 0.00 0.00 0.00 56 1014.5
20260503184047 63 232 0.0 0.0 0.00 0.00 0.00 55 1014.4
20260503182034 64 120 0.0 0.0 0.00 0.00 0.00 50 1014.3
20260503180034 68 166 0.0 0.0 0.00 0.00 0.00 45 1014.2
20260503174034 70 148 0.0 0.0 0.00 0.00 0.00 42 1014.1
20260503171946 72 185 0.0 0.0 0.00 0.00 0.00 37 1014.1
20260503081538 70 98 3.0 3.0 0.00 0.00 0.00 41 1018.4
20260503071515 66 116 3.0 3.0 0.00 0.00 0.00 50 1018.6
20260503053431 53 257 0.0 0.0 0.00 0.00 0.00 70 1018.7
20260503051427 51 122 2.0 2.0 0.00 0.00 0.00 76 1018.8
20260503045423 49 157 0.0 0.0 0.00 0.00 0.00 79 1018.9
20260503043420 47 119 0.0 0.0 0.00 0.00 0.00 84 1018.9
20260503041420 46 131 0.0 0.0 0.00 0.00 0.00 84 1018.8
20260503035420 44 126 0.0 0.0 0.00 0.00 0.00 85 1018.8
20260503033420 43 137 0.0 0.0 0.00 0.00 0.00 87 1018.8
20260503031409 44 135 0.0 0.0 0.00 0.00 0.00 86 1018.9
20260503025408 44 126 0.0 0.0 0.00 0.00 0.00 83 1018.9
20260503023356 44 126 0.0 0.0 0.00 0.00 0.00 85 1018.9
20260503021344 45 125 0.0 0.0 0.00 0.00 0.00 84 1018.9
20260503015344 44 101 0.0 0.0 0.00 0.00 0.00 84 1018.9
20260503013332 44 117 0.0 0.0 0.00 0.00 0.00 86 1019.0
20260503011320 44 116 0.0 0.0 0.00 0.00 0.00 87 1018.9
20260503005308 44 118 0.0 0.0 0.00 0.00 0.00 87 1018.9
20260503003256 45 131 0.0 0.0 0.00 0.00 0.00 87 1019.1
20260503001256 47 121 0.0 0.0 0.00 0.00 0.00 81 1019.0
20260502235255 47 143 0.0 0.0 0.00 0.00 0.00 82 1019.0
20260502233255 47 121 0.0 0.0 0.00 0.00 0.00 81 1019.2
20260502231243 47 126 0.0 0.0 0.00 0.00 0.00 81 1019.2
20260502225243 48 113 0.0 0.0 0.00 0.00 0.00 80 1019.3